Cloud_Cover
96 64 0 0 0 0 0 0 0 0 0 0 0 0 0 64 100 100 100 99 84 100 100 100 100 100 100 100 62 100 89 13 36 5 5 5 59 87 5 19 5 5 5
86 60 0 0 0 0 0 0 0 0 0 0 0 0 0 0 97 100 100 100 100 100 100 80 100 100 100 100 100 5 4 5 100 20 5 21 8 17 19 26 5 2 4
100 57 1 0 0 0 0 0 0 0 0 0 0 0 0 0 1 100 100 100 100 100 100 6 39 31 100 100 100 91 96 100 5 86 13 5 9 20 5 5 5 0 17
100 69 20 0 0 0 0 0 0 0 0 0 0 0 0 1 4 100 100 100 92 65 56 9 6 9 100 6 100 96 94 16 21 5 4 5 5 9 7 5 4 2 7
100 60 13 0 0 0 0 0 0 0 0 0 0 2 0 0 0 76 100 100 72 54 100 92 38 99 98 100 97 100 40 40 5 5 5 0 2 0 1 0 5 1 0
100 52 4 0 0 0 0 0 0 0 0 0 0 0 2 15 0 0 28 100 100 100 100 96 12 5 79 18 11 72 5 4 4 5 0 0 0 0 0 5 4 0 0
100 53 8 1 2 0 0 0 0 0 0 0 0 0 0 0 0 0 0 12 100 100 100 100 100 5 2 2 0 0 0 0 0 0 1 0 0 0 0 0 0 0 0
100 66 23 0 4 0 0 0 0 0 0 0 0 0 0 0 0 0 0 0 0 4 36 16 63 95 23 15 11 5 5 5 12 0 0 0 0 0 0 0 0 0 0
44 34 50 40 8 0 0 0 0 0 0 0 0 0 0 0 0 0 0 0 0 0 0 0 0 0 1 4 0 0 1 0 0 0 0 0 0 0 0 0 0 0 0
74 4 13 44 57 39 26 1 0 0 0 0 0 0 0 0 0 0 0 0 0 0 0 0 0 0 0 0 0 0 0 0 0 0 0 0 0 0 0 0 0 0 0
100 98 36 48 100 80 37 13 3 0 0 0 1 0 99 8 0 0 0 0 0 0 0 0 0 0 0 0 0 0 0 0 0 0 0 0 0 0 0 0 0 0 0
80 100 100 100 100 78 43 37 30 12 15 14 5 17 66 2 5 0 0 0 0 0 0 0 0 0 0 3 16 5 0 0 0 0 0 0 0 0 0 0 0 0 0
51 26 78 100 100 50 32 54 46 44 40 34 21 22 15 1 2 16 25 16 16 11 22 7 3 9 0 6 3 1 0 0 0 0 0 0 0 0 0 0 0 0 0
100 7 21 14 46 33 31 45 30 41 35 36 28 9 26 24 3 0 21 10 16 21 21 16 25 4 1 0 0 0 0 0 0 0 0 0 0 0 0 0 0 0 0
100 53 10 4 4 28 48 16 17 27 28 12 12 5 18 13 0 0 0 3 14 19 27 20 15 0 1 0 0 0 0 0 0 0 0 0 0 0 0 0 0 0 0
100 99 31 19 98 74 96 35 37 9 46 43 95 61 34 32 6 0 0 0 8 18 3 0 0 0 0 0 0 0 0 0 0 0 0 0 0 0 0 0 0 0 0
6 5 20 94 100 100 100 100 100 100 100 100 100 100 100 100 17 56 71 45 1 5 3 7 3 0 0 0 0 0 0 0 0 0 0 0 0 0 0 0 0 0 0
99 43 86 88 100 100 71 69 65 99 60 90 100 95 100 100 98 100 100 100 98 35 79 32 9 5 5 3 5 2 0 0 0 0 0 0 0 0 0 2 5 8 46
100 100 100 99 89 100 100 93 100 100 100 82 99 53 45 12 35 12 98 72 35 100 40 7 6 99 100 20 5 5 3 5 5 3 5 2 0 0 0 3 5 12 84
100 100 100 100 100 100 45 100 100 100 78 25 100 97 100 40 66 94 71 80 13 14 77 95 100 94 21 84 54 92 49 6 5 5 7 1 5 5 5 5 11 10 5
5 93 99 56 25 100 100 84 84 51 18 23 4 26 49 100 100 100 100 100 84 100 72 98 99 64 86 45 64 100 5 35 90 84 5 6 42 1 5 98 98 100 98
100 100 100 100 100 100 100 94 100 100 93 90 69 22 72 100 92 100 75 100 99 98 96 89 100 98 100 100 100 100 70 20 4 2 32 96 83 8 5 0 4 28 52
100 100 100 100 100 100 100 100 100 100 100 100 100 100 100 100 100 100 100 100 100 98 93 100 100 99 100 75 100 100 100 100 91 3 4 5 10 25 26 63 4 0 0
95 100 100 100 96 100 100 100 100 100 100 100 100 100 100 100 91 89 90 76 5 34 16 5 17 38 94 100 75 63 100 100 100 99 42 23 18 15 41 42 22 32 4
100 100 100 96 88 99 99 100 48 100 100 100 100 100 100 99 69 48 53 58 47 72 45 6 5 24 52 87 99 62 47 97 78 100 100 99 64 6 18 100 45 5 28
100 94 26 11 85 100 100 100 100 96 88 80 27 3 2 1 0 0 0 0 0 0 0 0 0 10 0 94 100 99 99 100 98 100 100 100 100 100 80 92 100 64 12